TimeCDT,TemperatureF,Dew PointF,Humidity,Sea Level PressureIn,VisibilityMPH,Wind Direction,Wind SpeedMPH,Gust SpeedMPH,PrecipitationIn,Events,Conditions,WindDirDegrees,DateUTC
12:15 AM,53.8,46.4,76,30.05,10.0,East,9.2,-,N/A,,Clear,100,2013-09-24 05:15:00
12:35 AM,53.2,46.4,78,30.04,10.0,East,9.2,-,N/A,,Clear,100,2013-09-24 05:35:00
12:55 AM,52.7,46.4,79,30.04,10.0,East,9.2,-,N/A,,Clear,100,2013-09-24 05:55:00
1:15 AM,52.3,46.4,80,30.05,10.0,East,9.2,-,N/A,,Clear,100,2013-09-24 06:15:00
1:35 AM,50.9,46.2,84,30.05,10.0,East,8.1,-,N/A,,Clear,100,2013-09-24 06:35:00
1:55 AM,50.7,46.4,85,30.05,10.0,East,8.1,-,N/A,,Clear,100,2013-09-24 06:55:00
2:35 AM,48.6,45.5,89,30.05,10.0,East,5.8,-,N/A,,Clear,100,2013-09-24 07:35:00
2:55 AM,48.2,45.5,90,30.05,10.0,East,6.9,-,N/A,,Clear,100,2013-09-24 07:55:00
3:15 AM,48.2,45.5,90,30.06,10.0,East,6.9,-,N/A,,Clear,100,2013-09-24 08:15:00
3:35 AM,48.2,45.5,90,30.06,10.0,East,5.8,-,N/A,,Clear,100,2013-09-24 08:35:00
3:55 AM,47.7,45.1,91,30.06,10.0,East,6.9,-,N/A,,Clear,90,2013-09-24 08:55:00
4:35 AM,47.3,45.0,92,30.06,10.0,East,6.9,-,N/A,,Clear,90,2013-09-24 09:35:00
4:55 AM,46.9,44.8,92,30.07,10.0,East,5.8,-,N/A,,Clear,90,2013-09-24 09:55:00
5:15 AM,46.6,44.6,93,30.07,10.0,East,5.8,-,N/A,,Clear,90,2013-09-24 10:15:00
5:35 AM,46.4,44.6,93,30.07,10.0,East,5.8,-,N/A,,Clear,90,2013-09-24 10:35:00
5:55 AM,45.0,43.7,95,30.07,10.0,East,6.9,-,N/A,,Clear,80,2013-09-24 10:55:00
6:15 AM,44.8,43.7,96,30.07,10.0,East,5.8,-,N/A,,Clear,80,2013-09-24 11:15:00
6:35 AM,44.8,43.7,96,30.07,10.0,East,5.8,-,N/A,,Clear,80,2013-09-24 11:35:00
6:55 AM,45.0,43.7,95,30.07,7.0,East,5.8,-,N/A,,Clear,80,2013-09-24 11:55:00
7:15 AM,46.6,44.8,93,30.07,10.0,East,6.9,-,N/A,,Clear,90,2013-09-24 12:15:00
7:35 AM,48.4,45.9,91,30.07,10.0,East,6.9,-,N/A,,Clear,90,2013-09-24 12:35:00
7:55 AM,49.8,46.6,89,30.07,10.0,East,8.1,-,N/A,,Scattered Clouds,90,2013-09-24 12:55:00
8:15 AM,51.1,47.1,86,30.06,10.0,East,8.1,-,N/A,,Clear,100,2013-09-24 13:15:00
8:35 AM,53.8,48.4,82,30.06,10.0,East,8.1,-,N/A,,Clear,100,2013-09-24 13:35:00
8:55 AM,55.9,48.6,76,30.05,10.0,ESE,11.5,-,N/A,,Clear,110,2013-09-24 13:55:00
9:15 AM,57.7,48.9,72,30.05,10.0,ESE,6.9,-,N/A,,Clear,120,2013-09-24 14:15:00
9:35 AM,59.4,49.3,69,30.05,10.0,ESE,8.1,-,N/A,,Clear,110,2013-09-24 14:35:00
9:55 AM,61.2,50.0,67,30.04,10.0,East,9.2,-,N/A,,Clear,100,2013-09-24 14:55:00
10:15 AM,63.5,50.7,63,30.04,10.0,East,9.2,-,N/A,,Clear,90,2013-09-24 15:15:00
10:35 AM,64.6,50.9,61,30.03,10.0,East,11.5,-,N/A,,Clear,100,2013-09-24 15:35:00
10:55 AM,66.6,51.1,57,30.02,10.0,East,11.5,-,N/A,,Clear,100,2013-09-24 15:55:00
11:15 AM,67.8,50.7,54,30.02,10.0,ESE,11.5,17.3,N/A,,Clear,110,2013-09-24 16:15:00
11:35 AM,68.7,50.5,52,30.01,10.0,East,10.4,-,N/A,,Clear,100,2013-09-24 16:35:00
11:55 AM,69.8,49.8,49,30.00,10.0,ESE,9.2,16.1,N/A,,Clear,110,2013-09-24 16:55:00
12:15 PM,70.2,49.8,48,29.99,10.0,East,9.2,-,N/A,,Clear,100,2013-09-24 17:15:00
12:55 PM,72.0,49.6,45,29.99,10.0,East,8.1,-,N/A,,Clear,100,2013-09-24 17:55:00
1:15 PM,72.0,49.8,46,29.98,10.0,East,9.2,-,N/A,,Clear,80,2013-09-24 18:15:00
1:35 PM,72.5,49.1,44,29.97,10.0,ESE,10.4,17.3,N/A,,Clear,110,2013-09-24 18:35:00
1:55 PM,72.5,48.6,43,29.96,10.0,ESE,10.4,-,N/A,,Clear,110,2013-09-24 18:55:00
2:15 PM,73.9,49.6,42,29.95,10.0,East,10.4,16.1,N/A,,Clear,80,2013-09-24 19:15:00
2:35 PM,73.8,48.6,41,29.94,10.0,ENE,12.7,-,N/A,,Clear,60,2013-09-24 19:35:00
2:55 PM,73.6,48.2,41,29.94,10.0,East,8.1,17.3,N/A,,Clear,80,2013-09-24 19:55:00
3:15 PM,74.1,47.8,39,29.94,10.0,East,10.4,16.1,N/A,,Clear,80,2013-09-24 20:15:00
3:35 PM,74.3,48.4,40,29.95,10.0,East,10.4,-,N/A,,Clear,90,2013-09-24 20:35:00
3:55 PM,74.1,48.0,40,29.94,10.0,ESE,10.4,-,N/A,,Clear,120,2013-09-24 20:55:00
4:15 PM,73.8,48.0,40,29.94,10.0,East,8.1,-,N/A,,Clear,100,2013-09-24 21:15:00
4:35 PM,73.6,48.0,40,29.92,10.0,ENE,11.5,-,N/A,,Clear,60,2013-09-24 21:35:00
4:55 PM,73.6,47.7,40,29.92,10.0,ENE,10.4,-,N/A,,Clear,60,2013-09-24 21:55:00
5:15 PM,73.0,48.4,42,29.92,10.0,East,12.7,-,N/A,,Clear,80,2013-09-24 22:15:00
5:35 PM,69.3,48.2,47,29.93,10.0,East,5.8,-,N/A,,Clear,80,2013-09-24 22:35:00
5:55 PM,66.6,49.5,54,29.93,10.0,ENE,5.8,-,N/A,,Clear,60,2013-09-24 22:55:00
6:15 PM,65.5,50.4,58,29.93,10.0,ENE,5.8,-,N/A,,Clear,60,2013-09-24 23:15:00
6:35 PM,64.4,49.6,59,29.93,10.0,NE,5.8,-,N/A,,Clear,50,2013-09-24 23:35:00
6:55 PM,63.1,49.5,61,29.92,10.0,ENE,6.9,-,N/A,,Clear,60,2013-09-24 23:55:00
7:15 PM,61.7,49.5,64,29.92,10.0,NE,5.8,-,N/A,,Clear,50,2013-09-25 00:15:00
7:35 PM,61.0,49.1,65,29.93,10.0,ENE,5.8,-,N/A,,Clear,60,2013-09-25 00:35:00
7:55 PM,62.8,49.5,62,29.93,10.0,ENE,9.2,-,N/A,,Clear,60,2013-09-25 00:55:00
8:15 PM,63.0,49.1,61,29.93,10.0,NE,6.9,-,N/A,,Clear,40,2013-09-25 01:15:00
8:35 PM,60.1,51.1,72,29.93,10.0,NE,6.9,-,N/A,,Clear,40,2013-09-25 01:35:00
8:55 PM,59.0,52.2,78,29.93,10.0,NE,8.1,-,N/A,,Clear,40,2013-09-25 01:55:00
9:15 PM,58.1,52.0,80,29.94,10.0,NE,4.6,-,N/A,,Clear,40,2013-09-25 02:15:00
9:35 PM,56.5,51.4,83,29.94,10.0,ENE,4.6,-,N/A,,Clear,60,2013-09-25 02:35:00
9:55 PM,55.6,50.7,84,29.94,10.0,NE,3.5,-,N/A,,Clear,40,2013-09-25 02:55:00
10:15 PM,55.4,50.0,82,29.94,10.0,NE,4.6,-,N/A,,Clear,50,2013-09-25 03:15:00
10:35 PM,54.5,49.3,83,29.94,10.0,NE,4.6,-,N/A,,Clear,50,2013-09-25 03:35:00
10:55 PM,54.3,49.5,84,29.94,10.0,NE,3.5,-,N/A,,Clear,40,2013-09-25 03:55:00
11:15 PM,54.5,49.3,83,29.93,10.0,NE,4.6,-,N/A,,Clear,40,2013-09-25 04:15:00
11:35 PM,54.0,49.1,84,29.93,10.0,NE,4.6,-,N/A,,Clear,50,2013-09-25 04:35:00
11:55 PM,52.9,48.4,85,29.93,10.0,ENE,3.5,-,N/A,,Clear,70,2013-09-25 04:55:00